This is the latest recevied weather packets stored in our database for station/object IN3XSV-15. If no packets are shown the sender has not sent any weather packets the latest 10 day(s).
| Time | Temp. | Humidity | Pressure | Rain* | Wind** | Luminosity | Snow |
|---|---|---|---|---|---|---|---|
| 1777885201 | 13.89° C | 57% | 860.2 hPa | 0 mm | - | - | - |
| 1777884901 | 13.89° C | 57% | 860.3 hPa | 0 mm | - | - | - |
| 1777884601 | 13.33° C | 58% | 860.3 hPa | 0 mm | - | - | - |
| 1777884301 | 13.33° C | 58% | 860.3 hPa | 0 mm | - | - | - |
| 1777884001 | 13.33° C | 57% | 860.3 hPa | 0 mm | - | - | - |
| 1777883701 | 12.78° C | 58% | 860.3 hPa | 0 mm | - | - | - |
| 1777883401 | 12.78° C | 57% | 860.4 hPa | 0 mm | - | - | - |
| 1777883101 | 13.33° C | 56% | 860.2 hPa | 0 mm | - | - | - |
| 1777882801 | 13.33° C | 57% | 860.2 hPa | 0 mm | - | - | - |
| 1777882501 | 13.33° C | 56% | 860.1 hPa | 0 mm | - | - | - |
| 1777882201 | 13.33° C | 56% | 860.3 hPa | 0 mm | - | - | - |
| 1777881901 | 12.78° C | 56% | 860.3 hPa | 0 mm | - | - | - |
| 1777881601 | 13.33° C | 55% | 860 hPa | 0 mm | - | - | - |
| 1777881301 | 13.33° C | 55% | 860.1 hPa | 0 mm | - | - | - |
| 1777881001 | 13.89° C | 53% | 860 hPa | 0 mm | - | - | - |
| 1777880705 | 14.44° C | 52% | 859.9 hPa | 0 mm | - | - | - |
| 1777880401 | 14.44° C | 51% | 860 hPa | 0 mm | - | - | - |
| 1777880101 | 15° C | 51% | 859.9 hPa | 0 mm | - | - | - |
| 1777879801 | 15.56° C | 50% | 859.9 hPa | 0 mm | - | - | - |
| 1777879501 | 16.11° C | 49% | 859.8 hPa | 0 mm | - | - | - |
| 1777879201 | 16.67° C | 49% | 859.9 hPa | 0 mm | - | - | - |
| 1777878901 | 17.22° C | 50% | 859.9 hPa | 0 mm | - | - | - |
| 1777878601 | 17.22° C | 50% | 859.7 hPa | 0 mm | - | - | - |
| 1777878301 | 17.22° C | 51% | 859.7 hPa | 0 mm | - | - | - |
| 1777878001 | 16.67° C | 50% | 859.7 hPa | 0 mm | - | - | - |
* Rain latest hour (hover to see other rain measurements)
** Current wind speed in m/s (hover to see current wind gust speed)